Terminal Aerodrome Forecast
Issued by NWS Mt. Holly, NJ

Home | Current Version | Previous Version | Text Only | Print | Product List | Glossary On
Versions: 1 2 3 4 5 6 7 8 9 10 11 12 13 14 15 16 17 18 19 20 21 22
435
FTUS41 KPHI 030029 AAA
TAFACY
TAF AMD
KACY 030029Z 0300/0324 28011G20KT P6SM FEW050
     FM031400 31018G30KT P6SM BKN040=

USA.gov is the U.S. government's official web portal to all federal, state and local government web resources and services.